Statesville, NC

2:52 AM EST on December 14, 2019 (GMT -0500)
Statesville Municipal

Weather History for KSVH - November, 2019

Change the Weather History Date:

Thursday, November 14, 2019

  Actual Average (KHKY) Record (KHKY)
Temperature  
Mean Temperature 30 °F -  
Max Temperature 38 °F 58 °F 78 °F (1999)
Min Temperature 22 °F 34 °F 17 °F (1986)
Degree Days  
Heating Degree Days 35    
Moisture  
Dew Point 23 °F    
Average Humidity 69    
Maximum Humidity 88    
Minimum Humidity 51    
Precipitation  
Precipitation 0.00 in - - ()
Sea Level Pressure  
Sea Level Pressure 30.33 in    
Wind  
Wind Speed 0 mph (ENE)    
Max Wind Speed 6 mph    
Max Gust Speed -    
Visibility 10 miles    
Events      
Averages and records for this station are not official NWS values.
T = Trace of Precipitation, MM = Missing Value Source: NWS Daily Summary

Daily Weather History Graph

Daily Weather History Graph

Search for Another Location

Airport or City:

Astronomy

Nov. 14, 2019 Rise Set
Actual Time 6:58 AM EST 5:17 PM EST
Civil Twilight 6:31 AM EST 5:44 PM EST
Nautical Twilight 6:00 AM EST 6:15 PM EST
Astronomical Twilight 5:30 AM EST 6:45 PM EST
Moon 7:04 PM EST 8:50 AM EST
Length of Visible Light 11h 13m
Length of Day
10h 18m
Waning Gibbous, 95% of the Moon is Illuminated
Nov 14
Waning Gibbous
Nov 19
Last Quarter
Nov 26
New
Dec 4
First Quarter
Dec 12
Full

Hourly Weather History & Observations

Time (EST) Temp. Windchill Dew Point Humidity Pressure Visibility Wind Dir Wind Speed Gust Speed Precip Events Conditions
12:15 AM 23.2 °F - 18.9 °F 84% 30.37 in 10.0 mi Calm Calm - N/A   Clear
12:35 AM 22.6 °F - 18.7 °F 85% 30.37 in 10.0 mi Calm Calm - N/A   Clear
12:55 AM 22.8 °F - 19.6 °F 87% 30.37 in 10.0 mi Calm Calm - N/A   Clear
1:15 AM 23.4 °F - 19.2 °F 84% 30.37 in 10.0 mi Calm Calm - N/A   Clear
1:55 AM 23.9 °F - 19.9 °F 85% 30.36 in 10.0 mi Calm Calm - N/A   Clear
2:15 AM 23.5 °F - 19.8 °F 85% 30.36 in 10.0 mi Calm Calm - N/A   Clear
2:35 AM 23.7 °F - 20.1 °F 86% 30.36 in 10.0 mi Calm Calm - N/A   Clear
2:55 AM 23.0 °F - 18.9 °F 84% 30.36 in 10.0 mi Calm Calm - N/A   Clear
3:15 AM 23.7 °F - 19.4 °F 84% 30.36 in 10.0 mi Calm Calm - N/A   Clear
3:35 AM 22.8 °F - 19.8 °F 88% 30.37 in 10.0 mi Calm Calm - N/A   Clear
3:55 AM 24.1 °F - 18.7 °F 80% 30.36 in 10.0 mi Calm Calm - N/A   Clear
4:15 AM 23.9 °F - 18.7 °F 80% 30.36 in 10.0 mi Calm Calm - N/A   Clear
4:35 AM 23.5 °F - 18.5 °F 81% 30.35 in 10.0 mi Calm Calm - N/A   Clear
4:55 AM 24.4 °F - 18.1 °F 77% 30.34 in 10.0 mi Calm Calm - N/A   Clear
5:15 AM 24.1 °F - 20.1 °F 85% 30.35 in 10.0 mi Calm Calm - N/A   Clear
5:55 AM 23.0 °F - 19.9 °F 88% 30.35 in 10.0 mi Calm Calm - N/A   Clear
6:15 AM 24.4 °F - 20.5 °F 85% 30.35 in 10.0 mi Calm Calm - N/A   Clear
6:35 AM 24.4 °F - 20.3 °F 84% 30.36 in 10.0 mi Calm Calm - N/A   Scattered Clouds
6:55 AM 24.4 °F - 21.2 °F 87% 30.36 in 10.0 mi Calm Calm - N/A   Mostly Cloudy
7:15 AM 25.9 °F - 21.2 °F 82% 30.36 in 10.0 mi Calm Calm - N/A   Overcast
7:55 AM 27.1 °F - 21.4 °F 79% 30.36 in 10.0 mi Calm Calm - N/A   Overcast
8:15 AM 28.2 °F - 21.0 °F 74% 30.37 in 10.0 mi Calm Calm - N/A   Overcast
8:35 AM 28.9 °F - 21.4 °F 73% 30.39 in 10.0 mi Calm Calm - N/A   Overcast
8:55 AM 29.3 °F - 21.9 °F 74% 30.40 in 10.0 mi Calm Calm - N/A   Overcast
9:15 AM 29.8 °F - 21.9 °F 72% 30.40 in 10.0 mi Calm Calm - N/A   Overcast
9:35 AM 30.2 °F - 22.1 °F 72% 30.40 in 10.0 mi Calm Calm - N/A   Overcast
9:55 AM 31.1 °F - 23.0 °F 72% 30.39 in 10.0 mi Calm Calm - N/A   Overcast
10:15 AM 31.8 °F 28.5 °F 22.5 °F 68% 30.38 in 10.0 mi East 3.5 mph - N/A   Overcast
10:35 AM 32.2 °F - 22.8 °F 68% 30.38 in 10.0 mi Calm Calm - N/A   Overcast
11:15 AM 33.3 °F - 23.2 °F 67% 30.37 in 10.0 mi Calm Calm - N/A   Overcast
11:35 AM 34.2 °F - 24.1 °F 67% 30.36 in 10.0 mi Calm Calm - N/A   Overcast
11:55 AM 34.7 °F - 23.7 °F 64% 30.34 in 10.0 mi Calm Calm - N/A   Overcast
12:15 PM 35.6 °F 32.8 °F 23.0 °F 60% 30.33 in 10.0 mi East 3.5 mph - N/A   Overcast
12:35 PM 36.5 °F - 20.3 °F 52% 30.33 in 10.0 mi Calm Calm - N/A   Overcast
12:55 PM 36.5 °F - 20.3 °F 52% 30.32 in 10.0 mi Calm Calm - N/A   Overcast
1:15 PM 36.9 °F - 20.7 °F 52% 30.31 in 10.0 mi Calm Calm - N/A   Overcast
1:35 PM 37.4 °F - 21.0 °F 52% 30.30 in 10.0 mi Calm Calm - N/A   Overcast
1:55 PM 38.1 °F - 22.1 °F 53% 30.30 in 10.0 mi Calm Calm - N/A   Overcast
2:15 PM 38.3 °F - 21.9 °F 52% 30.29 in 10.0 mi Calm Calm - N/A   Overcast
2:35 PM 38.3 °F - 21.9 °F 52% 30.29 in 10.0 mi Calm Calm - N/A   Overcast
2:55 PM 38.3 °F - 21.7 °F 51% 30.29 in 10.0 mi Calm Calm - N/A   Overcast
3:35 PM 38.3 °F - 22.5 °F 53% 30.28 in 10.0 mi Calm Calm - N/A   Overcast
3:55 PM 38.3 °F - 22.3 °F 53% 30.29 in 10.0 mi Calm Calm - N/A   Overcast
4:15 PM 38.7 °F - 22.8 °F 53% 30.28 in 10.0 mi Calm Calm - N/A   Overcast
4:35 PM 38.7 °F - 23.9 °F 55% 30.28 in 10.0 mi Calm Calm - N/A   Overcast
4:55 PM 38.5 °F - 23.7 °F 55% 30.28 in 10.0 mi Calm Calm - N/A   Overcast
5:15 PM 38.5 °F - 24.3 °F 57% 30.26 in 10.0 mi Calm Calm - N/A   Overcast
5:35 PM 38.3 °F 35.9 °F 25.3 °F 60% 30.26 in 10.0 mi ESE 3.5 mph - N/A   Overcast
5:55 PM 38.3 °F - 25.9 °F 61% 30.27 in 10.0 mi Calm Calm - N/A   Overcast
6:15 PM 38.3 °F - 25.7 °F 61% 30.27 in 10.0 mi Calm Calm - N/A   Overcast
6:35 PM 38.3 °F - 25.7 °F 61% 30.27 in 10.0 mi Calm Calm - N/A   Overcast
6:55 PM 38.3 °F - 26.2 °F 62% 30.27 in 10.0 mi Calm Calm - N/A   Overcast
7:15 PM 38.3 °F - 26.1 °F 61% 30.29 in 10.0 mi Calm Calm - N/A   Overcast
7:35 PM 38.3 °F - 26.6 °F 63% 30.29 in 10.0 mi Calm Calm - N/A   Overcast
7:55 PM 38.3 °F 35.9 °F 26.2 °F 62% 30.28 in 10.0 mi ENE 3.5 mph - N/A   Overcast
8:15 PM 38.3 °F - 26.8 °F 63% 30.29 in 10.0 mi Calm Calm - N/A   Overcast
8:35 PM 38.3 °F - 26.1 °F 61% 30.30 in 10.0 mi Calm Calm - N/A   Overcast
8:55 PM 38.3 °F - 27.1 °F 64% 30.30 in 10.0 mi Calm Calm - N/A   Overcast
9:15 PM 38.3 °F - 26.8 °F 63% 30.29 in 10.0 mi Calm Calm - N/A   Overcast
9:35 PM 38.3 °F - 26.8 °F 63% 30.29 in 10.0 mi Calm Calm - N/A   Overcast
9:55 PM 38.3 °F - 27.5 °F 65% 30.29 in 10.0 mi Calm Calm - N/A   Overcast
10:15 PM 37.4 °F - 27.7 °F 68% 30.28 in 10.0 mi Calm Calm - N/A   Overcast
10:35 PM 38.3 °F 33.9 °F 27.0 °F 64% 30.29 in 10.0 mi North 5.8 mph - N/A   Overcast
10:55 PM 38.3 °F - 26.6 °F 63% 30.27 in 10.0 mi Calm Calm - N/A   Overcast
11:15 PM 38.3 °F - 26.6 °F 63% 30.27 in 10.0 mi Calm Calm - N/A   Overcast
11:35 PM 38.3 °F 35.9 °F 26.4 °F 62% 30.27 in 10.0 mi NNE 3.5 mph - N/A   Overcast
11:55 PM 38.3 °F - 28.0 °F 67% 30.29 in 10.0 mi Calm Calm - N/A   Overcast